This demonstration page uses our WeatherBlox Daily Observations layout. Learn more.

Left ArrowRight Arrow

Hourly Observations for August 7, 2019

Temp ( °F °C ) Dew Point ( °F °C ) Humidity (%) Winds ( mph kmh ) Pressure ( in mb ) Visibility ( mi km ) Precip ( " mm )
12:59 am 00:59 Partly Cloudy 78 25.6 73 22.8 85 85 S 7 11 29.88 1012 10 16 0.00 0.00
1:59 am 01:59 Mostly Cloudy 78 25.6 73 22.8 85 85 S 8 13 29.88 1012 9 14 0.00 0.00
2:59 am 02:59 Mostly Cloudy 77 25 73 22.8 88 88 SSW 7 11 29.88 1012 8 13 0.00 0.00
3:59 am 03:59 Mostly Cloudy 76 24.4 72 22.2 88 88 SSW 6 9 29.88 1012 8 13 0.00 0.00
4:59 am 04:59 Partly Cloudy 76 24.4 72 22.2 88 88 SSW 9 15 29.88 1012 8 13 0.00 0.00
5:59 am 05:59 Partly Cloudy 76 24.4 72 22.2 88 88 SSW 8 13 29.88 1012 8 13 0.00 0.00
6:59 am 06:59 Partly Cloudy 76 24.4 73 22.8 91 91 SSW 8 13 29.89 1012 7 11 0.00 0.00
7:59 am 07:59 Mostly Sunny 78 25.6 74 23.3 87 87 SSW 7 11 29.89 1012 8 13 0.00 0.00
8:59 am 08:59 Sunny 81 27.2 75 23.9 82 82 S 6 9 29.90 1012 7 11 0.00 0.00
9:59 am 09:59 Partly Cloudy 83 28.3 75 23.9 77 77 SSW 10 17 29.89 1012 7 11 0.00 0.00
10:59 am 10:59 Partly Cloudy 87 30.6 76 24.4 70 70 S 8 13 29.88 1012 8 13 0.00 0.00
11:59 am 11:59 Mostly Sunny 89 31.7 77 25 68 68 SSW 7 11 29.87 1012 8 13 0.00 0.00
12:59 pm 12:59 Partly Cloudy 88 31.1 76 24.4 68 68 S 12 19 29.85 1011 8 13 0.00 0.00
1:40 pm 13:40 Partly Cloudy with Thunderstorms 89 31.7 76 24.4 65 65 SSW 12 19 29.83 1010 8 13 0.00 0.00
1:59 pm 13:59 Partly Cloudy 89 31.7 75 23.9 63 63 S 12 19 29.81 1009 8 13 0.00 0.00
2:59 pm 14:59 Partly Cloudy 90 32.2 76 24.4 63 63 SW 12 19 29.79 1009 8 13 0.00 0.00
3:31 pm 15:31 Partly Cloudy with Thunderstorms 91 32.8 76 24.4 61 61 S 8 13 29.77 1008 8 13 0.00 0.00
3:59 pm 15:59 Mostly Cloudy with Thunderstorms 84 28.9 68 20 59 59 SSE 10 17 29.78 1008 2 3 0.00 0.00
4:16 pm 16:16 Cloudy with Thunderstorms 72 22.2 68 20 87 87 SE 24 39 29.81 1009 2 2 0.32 8.13
4:23 pm 16:23 Windy with Storms Likely 74 23.3 70 21.1 88 88 WNW 24 39 29.84 1010 7 11 0.35 8.89
4:27 pm 16:27 Cloudy with Thunderstorms 73 22.8 70 21.1 90 90 WNW 25 41 29.86 1011 2 2 0.59 14.99
4:33 pm 16:33 Cloudy with Strong Thunderstorms 71 21.7 68 20 90 90 NW 21 33 29.90 1013 2 2 0.98 24.89
4:38 pm 16:38 Cloudy with Strong Thunderstorms 71 21.7 68 20 90 90 W 7 11 29.91 1013 1 2 1.32 33.53
4:50 pm 16:50 Cloudy with Thunderstorms 70 21.1 68 20 93 93 SE 8 13 29.90 1013 2 3 1.73 43.94
4:59 pm 16:59 Cloudy with Thunderstorms 70 21.1 68 20 93 93 SE 9 15 29.89 1012 3 5 1.73 43.94
5:16 pm 17:16 Cloudy with Thunderstorms 70 21.1 69 20.6 97 97 S 5 7 29.87 1011 4 6 0.00 0.00
5:59 pm 17:59 Cloudy with Thunderstorms 70 21.1 68 20 93 93 SSE 7 11 29.87 1011 7 11 0.05 1.27
6:59 pm 18:59 Mostly Cloudy 71 21.7 69 20.6 94 94 SSE 7 11 29.83 1010 10 16 0.03 0.76
7:59 pm 19:59 Mostly Cloudy 71 21.7 69 20.6 94 94 S 8 13 29.82 1010 10 16 0.00 0.00
8:59 pm 20:59 Mostly Cloudy 71 21.7 69 20.6 94 94 S 9 15 29.83 1010 10 16 0.00 0.00
9:59 pm 21:59 Mostly Cloudy 71 21.7 69 20.6 94 94 S 5 7 29.85 1011 10 16 0.00 0.00
10:59 pm 22:59 Partly Cloudy 72 22.2 70 21.1 94 94 S 7 11 29.84 1011 10 16 0.00 0.00
11:59 pm 23:59 Partly Cloudy 73 22.8 71 21.7 94 94 SSW 10 17 29.83 1010 10 16 0.00 0.00

Powered by AerisWeather